Date String (YYYY-MM-DD hh:mm:ss) UTC,Instrument flags,Ambient pressure (hPa),Sample flow (lpm),Bypass flow (lpm),Sample temperature (°C),Ambient temperature (°C),ASC tube jacket temperature (°C),LED temperature (°C),Box temperature (°C),Sample RH (%),Span deviation,Mass concentration (μg/m³),Mass concentration (μg/m³),Mass concentration (μg/m³)
DateTimeUTC,F1_M11,P_M11,Q1_M11,Q2_M11,T1_M11,T2_M11,T3_M11,T4_M11,T5_M11,U1_M11,ZSPAN_M11,X2_M11,X0_M11,X1_M11
2022-08-02 13:00:00,,0826.3,4.99,0.00,29.8,28.0,00.0,38.5,31.6,23.8,0001.3,0010.22,0013.72,0009.88
2022-08-02 13:01:00,,0826.3,5.01,0.00,29.8,27.3,00.0,38.5,31.5,23.9,0001.3,0010.24,0013.58,0009.84
2022-08-02 13:02:00,,0826.3,4.99,0.00,29.7,27.2,00.0,38.5,31.4,24.1,0001.6,0010.25,0013.72,0009.83
2022-08-02 13:03:00,,0826.3,5.01,0.00,29.6,27.3,00.0,38.4,31.3,24.3,0002.0,0010.21,0013.97,0009.79
2022-08-02 13:04:00,,0826.3,4.99,0.00,29.6,27.4,00.0,38.4,31.3,24.4,0002.5,0010.19,0013.89,0009.77
2022-08-02 13:05:00,,0826.3,5.01,0.00,29.5,27.5,00.0,38.4,31.3,24.6,0002.7,0010.16,0013.85,0009.76
2022-08-02 13:06:00,,0826.3,5.01,0.00,29.5,27.7,00.0,38.4,31.4,24.3,0002.6,0010.11,0013.70,0009.74
2022-08-02 13:07:00,,0826.3,5.00,0.00,29.5,27.8,00.0,38.4,31.4,24.1,0002.7,0010.11,0013.59,0009.73
2022-08-02 13:08:00,,0826.2,5.01,0.00,29.5,28.0,00.0,38.4,31.4,24.4,0002.9,0010.12,0013.62,0009.70
2022-08-02 13:09:00,,0826.3,5.00,0.00,29.6,28.1,00.0,38.4,31.4,24.4,0003.1,0010.12,0013.58,0009.70
2022-08-02 13:10:00,,0826.2,5.00,0.00,29.6,28.2,00.0,38.4,31.5,24.6,0003.2,0010.13,0013.53,0009.70
2022-08-02 13:11:00,,0826.3,5.00,0.00,29.6,28.3,00.0,38.4,31.5,24.8,0002.8,0010.11,0013.32,0009.71
2022-08-02 13:12:00,,0826.3,5.00,0.00,29.6,28.4,00.0,38.4,31.5,24.4,0002.8,0010.06,0013.13,0009.71
2022-08-02 13:13:00,,0826.3,4.99,0.00,29.6,28.5,00.0,38.4,31.6,24.4,0002.6,0010.06,0013.19,0009.71
2022-08-02 13:14:00,,0826.3,5.00,0.00,29.7,28.6,00.0,38.4,31.6,24.8,0002.7,0010.06,0012.85,0009.71
2022-08-02 13:15:00,,0826.3,5.00,0.00,29.7,28.6,00.0,38.4,31.7,24.2,0002.4,0010.02,0012.76,0009.69
2022-08-02 13:16:00,,0826.3,4.98,0.00,29.7,28.7,00.0,38.5,31.7,24.3,0002.2,0010.00,0012.97,0009.66
2022-08-02 13:17:00,,0826.4,5.01,0.00,29.8,28.8,00.0,38.5,31.7,24.1,0002.6,0010.01,0013.70,0009.64
2022-08-02 13:18:00,,0826.4,5.00,0.00,29.8,28.8,00.0,38.5,31.8,24.1,0002.4,0010.04,0013.88,0009.65
2022-08-02 13:19:00,,0826.3,5.00,0.00,29.8,28.9,00.0,38.5,31.8,24.0,0002.2,0010.03,0013.90,0009.65
2022-08-02 13:20:00,,0826.4,5.00,0.00,29.8,28.9,00.0,38.6,31.8,23.6,0001.9,0010.02,0013.92,0009.63
2022-08-02 13:21:00,,0826.3,5.00,0.00,29.9,28.8,00.0,38.6,31.8,23.8,0001.9,0010.01,0014.35,0009.61
2022-08-02 13:22:00,,0826.3,4.99,0.00,29.8,28.0,00.0,38.5,31.6,24.0,0001.9,0010.01,0014.65,0009.58
2022-08-02 13:23:00,,0826.3,5.00,0.00,29.8,27.5,00.0,38.5,31.5,23.7,0001.9,0010.00,0014.79,0009.56
2022-08-02 13:24:00,,0826.3,4.99,0.00,29.7,27.4,00.0,38.5,31.5,23.7,0001.8,0009.97,0014.76,0009.52
2022-08-02 13:25:00,,0826.3,5.01,0.00,29.7,27.5,00.0,38.5,31.4,23.7,0001.8,0009.94,0014.58,0009.48
2022-08-02 13:26:00,,0826.3,4.99,0.00,29.6,27.6,00.0,38.5,31.4,23.7,0001.8,0009.92,0014.60,0009.43
2022-08-02 13:27:00,,0826.3,5.01,0.00,29.6,27.8,00.0,38.4,31.4,24.1,0001.8,0009.89,0015.04,0009.40
2022-08-02 13:28:00,,0826.4,5.00,0.00,29.6,27.9,00.0,38.4,31.5,24.6,0001.6,0009.82,0014.71,0009.34
2022-08-02 13:29:00,,0826.4,5.00,0.00,29.6,28.1,00.0,38.4,31.5,24.3,0001.4,0009.73,0014.37,0009.28
2022-08-02 13:30:00,,0826.5,5.00,0.00,29.6,28.2,00.0,38.5,31.5,24.4,0001.4,0009.65,0014.23,0009.21
2022-08-02 13:31:00,,0826.5,5.00,0.00,29.6,28.3,00.0,38.5,31.5,24.7,0001.2,0009.58,0014.14,0009.15
2022-08-02 13:32:00,,0826.4,5.01,0.00,29.7,28.4,00.0,38.5,31.6,25.0,0001.2,0009.52,0013.61,0009.11
2022-08-02 13:33:00,,0826.5,5.00,0.00,29.7,28.5,00.0,38.5,31.6,24.8,0001.2,0009.42,0013.13,0009.04
2022-08-02 13:34:00,,0826.5,5.01,0.00,29.7,28.6,00.0,38.5,31.7,25.0,0001.1,0009.34,0012.94,0008.97
2022-08-02 13:35:00,,0826.4,5.01,0.00,29.7,28.7,00.0,38.5,31.7,24.7,0000.8,0009.18,0012.61,0008.82
2022-08-02 13:36:00,,0826.5,4.99,0.00,29.8,28.7,00.0,38.5,31.7,24.7,0000.7,0009.02,0012.45,0008.65
2022-08-02 13:37:00,,0826.4,5.00,0.00,29.8,28.8,00.0,38.5,31.8,24.7,0000.6,0008.85,0012.25,0008.48
2022-08-02 13:38:00,,0826.5,4.99,0.00,29.8,28.9,00.0,38.6,31.8,24.4,0000.5,0008.57,0011.30,0008.20
2022-08-02 13:39:00,,0826.4,5.01,0.00,29.9,28.9,00.0,38.6,31.8,24.3,0000.5,0008.29,0010.66,0007.94
2022-08-02 13:40:00,,0826.4,5.00,0.00,29.9,28.6,00.0,38.6,31.8,24.8,0000.6,0008.04,0010.38,0007.68
2022-08-02 13:41:00,,0826.5,5.00,0.00,29.8,27.9,00.0,38.5,31.6,25.8,0000.8,0007.79,0010.14,0007.45
2022-08-02 13:42:00,,0826.5,5.01,0.00,29.8,27.6,00.0,38.5,31.5,25.9,0000.9,0007.62,0010.02,0007.26
2022-08-02 13:43:00,,0826.4,4.98,0.00,29.7,27.6,00.0,38.5,31.5,26.7,0000.8,0007.51,0010.20,0007.10
2022-08-02 13:44:00,,0826.5,5.01,0.00,29.7,27.7,00.0,38.5,31.4,27.1,0000.8,0007.44,0010.36,0006.98
2022-08-02 13:45:00,,0826.4,4.99,0.00,29.7,27.8,00.0,38.5,31.5,26.0,0000.8,0007.32,0010.63,0006.81
2022-08-02 13:46:00,,0826.4,5.00,0.00,29.7,28.0,00.0,38.5,31.5,24.9,0001.0,0007.18,0010.59,0006.68
2022-08-02 13:47:00,,0826.4,4.99,0.00,29.7,28.1,00.0,38.5,31.5,25.0,0000.8,0007.06,0010.45,0006.56
2022-08-02 13:48:00,,0826.4,5.02,0.00,29.7,28.2,00.0,38.5,31.6,25.0,0000.9,0006.94,0010.66,0006.44
2022-08-02 13:49:00,,0826.4,4.99,0.00,29.7,28.4,00.0,38.5,31.6,24.9,0000.6,0006.89,0010.65,0006.41
2022-08-02 13:50:00,,0826.5,5.00,0.00,29.7,28.5,00.0,38.5,31.7,25.1,0001.3,0006.85,0010.71,0006.38
2022-08-02 13:51:00,,0826.5,5.01,0.00,29.7,28.6,00.0,38.5,31.7,25.0,0001.3,0006.78,0010.61,0006.33
2022-08-02 13:52:00,,0826.5,5.00,0.00,29.8,28.6,00.0,38.5,31.7,25.6,0001.0,0006.74,0010.57,0006.28
2022-08-02 13:53:00,,0826.5,5.00,0.00,29.8,28.7,00.0,38.6,31.7,28.0,0001.0,0006.66,0010.43,0006.23
2022-08-02 13:54:00,,0826.5,5.00,0.00,29.8,28.8,00.0,38.6,31.7,31.0,0001.0,0006.69,0010.26,0006.29
2022-08-02 13:55:00,,0826.4,5.00,0.00,29.9,28.9,00.0,38.6,31.8,30.7,0000.9,0006.77,0010.12,0006.39
2022-08-02 13:56:00,,0826.5,5.01,0.00,29.9,28.9,00.0,38.6,31.9,30.9,0000.8,0006.88,0010.83,0006.54
2022-08-02 13:57:00,,0826.5,5.00,0.00,29.9,28.2,00.0,38.6,31.7,31.5,0001.1,0007.11,0011.28,0006.74
2022-08-02 13:58:00,,0826.4,5.01,0.00,29.8,27.7,00.0,38.6,31.6,31.8,0001.2,0007.35,0012.07,0006.96
2022-08-02 13:59:00,,0826.5,4.99,0.00,29.8,27.6,00.0,38.5,31.6,31.9,0001.6,0007.60,0012.32,0007.19
